Burns, OR

7:21 AM PDT on September 30, 2016 (GMT -0700)
Burns Municipal

Weather History for KBNO - March, 2014

Change the Weather History Date:

Thursday, March 6, 2014

  Actual Average Record
Temperature  
Mean Temperature 41 °F 35 °F  
Max Temperature 52 °F 46 °F 62 °F (2005)
Min Temperature 29 °F 23 °F 7 °F (1985)
Degree Days  
Heating Degree Days 24 30  
Month to date heating degree days 138 187  
Since 1 July heating degree days 5421 5715  
Cooling Degree Days 0 0  
Month to date cooling degree days 0 0  
Year to date cooling degree days 0 0  
Moisture  
Dew Point 32 °F    
Average Humidity 70    
Maximum Humidity 93    
Minimum Humidity 46    
Precipitation  
Precipitation 0.09 in 0.03 in 0.35 in (1957)
Month to date precipitation 0.32 0.23  
Year to date precipitation 2.44 2.44  
Sea Level Pressure  
Sea Level Pressure 29.92 in    
Wind  
Wind Speed 14 mph (SW)    
Max Wind Speed 33 mph    
Max Gust Speed 44 mph    
Visibility 10 miles    
Events Rain    
T = Trace of Precipitation, MM = Missing Value Source: NWS Daily Summary

Daily Weather History Graph

Daily Weather History Graph

Search for Another Location

Airport or City:

Trip Planner

Search our weather history database for the weather conditions in past years. The results will help you decide how hot, cold, wet, or windy it might be!

Date:

Astronomy

Mar. 06, 2014 Rise Set
Actual Time 6:23 AM PST 5:51 PM PST
Civil Twilight 5:55 AM PST 6:19 PM PST
Nautical Twilight 5:21 AM PST 6:52 PM PST
Astronomical Twilight 4:48 AM PST 7:26 PM PST
Moon 9:24 AM PST (3/6) No Moon Set
Length of Visible Light 12h 24m
Length of Day
11h 27m
Waxing Crescent, 33% of the Moon is Illuminated
Mar 6
Waxing Crescent
Mar 8
First Quarter
Mar 16
Full
Mar 23
Last Quarter
Mar 30
New

Hourly Weather History & Observations

Time (PST) Temp. Windchill Dew Point Humidity Pressure Visibility Wind Dir Wind Speed Gust Speed Precip Events Conditions
12:53 AM 48.0 °F - 44.1 °F 86% 29.74 in 8.0 mi SW 13.8 mph 21.9 mph 0.02 in Rain Light Rain
1:53 AM 45.0 °F 39.3 °F 41.0 °F 86% 29.78 in 10.0 mi SSW 11.5 mph - 0.07 in   Overcast
2:53 AM 41.0 °F 36.4 °F 39.0 °F 93% 29.79 in 10.0 mi SSW 6.9 mph - N/A   Clear
3:53 AM 41.0 °F 33.9 °F 36.0 °F 82% 29.79 in 10.0 mi South 12.7 mph - N/A   Clear
4:53 AM 37.0 °F 31.0 °F 34.0 °F 89% 29.82 in 10.0 mi WSW 8.1 mph - N/A   Scattered Clouds
5:53 AM 39.0 °F - 34.0 °F 82% 29.84 in 10.0 mi Calm Calm - N/A   Partly Cloudy
6:53 AM 39.9 °F 35.8 °F 33.1 °F 77% 29.85 in 10.0 mi SE 5.8 mph - N/A   Overcast
7:53 AM 41.0 °F 35.2 °F 33.1 °F 73% 29.87 in 10.0 mi South 9.2 mph - N/A   Overcast
8:53 AM 46.9 °F - 34.0 °F 61% 29.86 in 10.0 mi South 20.7 mph 27.6 mph N/A   Scattered Clouds
9:53 AM 48.9 °F - 32.0 °F 52% 29.85 in 10.0 mi South 23.0 mph 33.4 mph N/A   Mostly Cloudy
10:53 AM 48.9 °F - 30.0 °F 48% 29.86 in 10.0 mi SSW 23.0 mph 33.4 mph N/A   Overcast
11:53 AM 50.0 °F - 30.0 °F 46% 29.85 in 10.0 mi SSW 21.9 mph 33.4 mph N/A   Mostly Cloudy
12:53 PM 48.0 °F - 30.0 °F 50% 29.86 in 10.0 mi SW 23.0 mph 33.4 mph 0.00 in Rain Light Rain
1:53 PM 48.9 °F - 28.0 °F 44% 29.87 in 10.0 mi SW 21.9 mph 28.8 mph 0.00 in   Overcast
2:53 PM 48.0 °F - 30.9 °F 52% 29.89 in 10.0 mi SW 19.6 mph 29.9 mph N/A   Overcast
3:53 PM 48.0 °F - 30.0 °F 50% 29.91 in 10.0 mi SW 26.5 mph 40.3 mph 0.00 in   Mostly Cloudy
4:53 PM 42.1 °F 33.3 °F 36.0 °F 79% 29.98 in 10.0 mi WSW 19.6 mph 28.8 mph 0.00 in Rain Light Rain
5:53 PM 41.0 °F 33.1 °F 30.9 °F 67% 30.00 in 10.0 mi WSW 15.0 mph - 0.00 in   Clear
6:53 PM 41.0 °F 33.5 °F 30.9 °F 67% 30.04 in 10.0 mi WSW 13.8 mph - N/A   Overcast
7:53 PM 37.9 °F 30.9 °F 30.0 °F 73% 30.07 in 10.0 mi WSW 10.4 mph - N/A   Clear
8:53 PM 37.0 °F 29.8 °F 30.0 °F 76% 30.09 in 10.0 mi West 10.4 mph - N/A   Clear
9:53 PM 33.1 °F 27.7 °F 28.0 °F 82% 30.12 in 10.0 mi West 5.8 mph - N/A   Clear
10:53 PM 32.0 °F 25.6 °F 28.0 °F 85% 30.14 in 10.0 mi SSW 6.9 mph - N/A   Clear
11:53 PM 28.9 °F 25.2 °F 26.1 °F 89% 30.17 in 10.0 mi SW 3.5 mph - N/A   Clear